Location: Balsareny
(41.8670°N, 1.8830°E)
Time: 10:47:44
(UTC+01:00)

Envisat - Pass Details

Date: 06 December 2021
Orbit: 764 x 766 km, 98.2° (Epoch: 15 January)

Event Time Altitude Azimuth Distance (km) Brightness Sun altitude
Rises 18:13:18 0° 207° (SSW) 3,218 7.1 -9.5°
Reaches altitude 10° 18:16:19 10° 226° (SW) 2,298 6.7 -10.0°
Maximum altitude 18:19:43 18° 269° (W) 1,812 6.0 -10.6°
Drops below altitude 10° 18:23:09 10° 311° (NW) 2,309 5.9 -11.2°
Sets 18:26:12 0° 330° (NNW) 3,241 6.4 -11.8°
